CW0318 Weather Reports


time (UTC)temp
C
wind
direction
speed
KPH
gust
KPH
rain 1hr
cm
rain 24hr
cm
rain mn
cm
humidity
%
barometer
mb
20260510115412 17 11 0.0 3.2 0.00 0.00 0.00 82 1013.0
20260510114411 16 48 1.6 3.2 0.00 0.00 0.00 82 1012.9
20260510113451 17 360 0.0 1.6 0.00 0.00 0.00 82 1012.5
20260510112431 17 360 0.0 3.2 0.00 0.00 0.00 82 1012.3
20260510111411 17 91 0.0 1.6 0.00 0.00 0.00 81 1012.3
20260510110411 17 91 0.0 0.0 0.00 0.00 0.00 80 1012.2
20260510105411 17 91 0.0 1.6 0.00 0.00 0.00 80 1011.8
20260510104410 17 91 0.0 1.6 0.00 0.00 0.00 79 1011.8
20260510103410 17 91 0.0 0.0 0.00 0.00 0.00 78 1012.0
20260510102430 17 91 0.0 3.2 0.00 0.00 0.00 78 1011.7
20260510101410 18 91 0.0 3.2 0.00 0.00 0.00 77 1011.5
20260510100410 18 74 0.0 3.2 0.00 0.00 0.00 77 1011.5
20260510095430 18 69 0.0 4.8 0.00 0.00 0.00 76 1011.5
20260510094410 18 52 0.0 4.8 0.00 0.00 0.00 75 1011.3
20260510093410 18 52 0.0 4.8 0.00 0.00 0.00 75 1011.4
20260510092429 18 99 0.0 0.0 0.00 0.00 0.00 74 1011.4
20260510091409 18 99 0.0 0.0 0.00 0.00 0.00 73 1011.4
20260510090409 18 100 0.0 0.0 0.00 0.00 0.00 73 1011.1
20260510085409 18 38 0.0 4.8 0.00 0.00 0.00 72 1010.4
20260510084409 19 281 0.0 4.8 0.00 0.00 0.00 71 1010.5
20260510083409 19 281 0.0 4.8 0.00 0.00 0.00 70 1010.3
20260510082408 20 360 0.0 8.0 0.00 0.00 0.00 69 1009.6
20260510081408 20 5 1.6 8.0 0.00 0.00 0.00 68 1009.5
20260510080408 20 23 0.0 8.0 0.00 0.00 0.00 67 1009.5
20260510075448 20 259 1.6 16.1 0.00 0.00 0.00 66 1009.1
20260510074408 20 82 0.0 16.1 0.00 0.00 0.00 67 1008.1
20260510073408 20 173 1.6 16.1 0.00 0.00 0.00 67 1007.0
20260510072408 20 184 8.0 19.3 0.00 0.00 0.00 65 1009.3
20260510071408 21 127 3.2 19.3 0.00 0.00 0.00 64 1010.3
20260510070448 21 148 0.0 14.5 0.00 0.00 0.00 61 1010.4
20260510065407 21 306 3.2 16.1 0.00 0.00 0.00 62 1009.6
20260510064407 20 176 4.8 12.9 0.00 0.00 0.00 65 1011.5
20260510063407 20 204 0.0 3.2 0.00 0.00 0.00 67 1011.7
20260510062407 20 269 0.0 3.2 0.00 0.00 0.00 66 1011.8
20260510061407 20 269 0.0 3.2 0.00 0.00 0.00 66 1011.7
20260510060407 20 269 3.2 3.2 0.00 0.00 0.00 66 1011.7
20260510055426 21 224 4.8 6.4 0.00 0.00 0.00 66 1012.0
20260510054406 21 57 1.6 3.2 0.00 0.00 0.00 66 1011.9
20260510053406 21 267 0.0 1.6 0.00 0.00 0.00 64 1012.4
20260510052406 21 265 0.0 4.8 0.00 0.00 0.00 64 1012.3
20260510051426 21 273 0.0 4.8 0.00 0.00 0.00 63 1012.3
20260510050426 21 11 0.0 0.0 0.00 0.00 0.00 63 1012.2
20260510045406 21 11 0.0 3.2 0.00 0.00 0.00 64 1011.7
20260510044426 21 5 1.6 3.2 0.00 0.00 0.00 63 1011.4
20260510043406 21 72 0.0 1.6 0.00 0.00 0.00 61 1011.2
20260510042405 21 72 0.0 3.2 0.00 0.00 0.00 61 1010.7
20260510041505 21 72 0.0 3.2 0.00 0.00 0.00 60 1010.6
20260510040405 21 72 0.0 3.2 0.00 0.00 0.00 59 1010.4
20260510035405 22 72 0.0 1.6 0.00 0.00 0.00 58 1010.4
20260510034405 22 72 0.0 1.6 0.00 0.00 0.00 57 1010.3
20260510033405 22 72 0.0 1.6 0.00 0.00 0.00 58 1010.3
20260510032404 21 72 0.0 0.0 0.00 0.00 0.00 58 1010.5
20260510031404 21 72 0.0 0.0 0.00 0.00 0.00 58 1010.4
20260510030404 21 72 0.0 0.0 0.00 0.00 0.00 58 1010.4
20260510025404 21 72 0.0 0.0 0.00 0.00 0.00 58 1010.3
20260510024424 22 72 0.0 0.0 0.00 0.00 0.00 56 1010.1
20260510023424 22 72 0.0 0.0 0.00 0.00 0.00 54 1009.7
20260510022444 22 72 0.0 0.0 0.00 0.00 0.00 52 1009.1
20260510021404 23 72 0.0 0.0 0.00 0.00 0.00 51 1008.8
20260510020403 23 72 0.0 0.0 0.00 0.00 0.00 49 1008.6
20260510015403 23 72 0.0 3.2 0.00 0.00 0.00 48 1008.3
20260510014423 23 72 1.6 3.2 0.00 0.00 0.00 47 1008.2
20260510013403 24 88 1.6 3.2 0.00 0.00 0.00 47 1008.1
20260510012403 24 88 0.0 3.2 0.00 0.00 0.00 46 1008.0
20260510011403 25 82 0.0 3.2 0.00 0.00 0.00 46 1007.5
20260510010403 25 79 1.6 3.2 0.00 0.00 0.00 45 1007.6
20260510005403 25 76 0.0 6.4 0.00 0.00 0.00 45 1007.7
20260510004402 26 61 3.2 6.4 0.00 0.00 0.00 44 1007.6
20260510003402 26 99 0.0 6.4 0.00 0.00 0.00 42 1007.5
20260510002402 26 61 4.8 8.0 0.00 0.00 0.00 44 1007.4
20260510001402 26 84 3.2 8.0 0.00 0.00 0.00 42 1007.5
20260510000403 27 73 3.2 4.8 0.00 0.00 0.00 41 1007.4
20260509235402 27 140 3.2 11.3 0.00 0.03 0.00 41 1007.5
20260509234402 27 80 3.2 11.3 0.00 0.03 0.00 38 1007.7
20260509233502 27 69 4.8 4.8 0.00 0.03 0.00 36 1007.5
20260509232401 27 57 4.8 12.9 0.00 0.03 0.00 35 1007.6
20260509231421 27 72 1.6 12.9 0.00 0.03 0.00 35 1007.8
20260509230401 27 88 1.6 6.4 0.00 0.03 0.00 35 1007.9
20260509225401 27 93 3.2 14.5 0.00 0.03 0.00 34 1007.9
20260509224401 27 45 4.8 14.5 0.00 0.03 0.00 33 1007.9
20260509223401 27 63 4.8 9.7 0.00 0.03 0.00 31 1008.0
20260509222401 27 113 3.2 12.9 0.00 0.03 0.00 36 1008.0
20260509221400 27 55 8.0 11.3 0.00 0.03 0.00 37 1007.9
20260509220400 28 61 4.8 11.3 0.00 0.03 0.00 34 1008.1
20260509215400 28 192 4.8 11.3 0.00 0.03 0.00 37 1008.2
20260509214400 28 84 0.0 8.0 0.00 0.03 0.00 34 1008.0
20260509213400 28 128 3.2 6.4 0.00 0.03 0.00 32 1008.2
20260509212400 28 83 6.4 14.5 0.00 0.03 0.00 32 1008.3
20260509211400 28 99 1.6 14.5 0.00 0.03 0.00 37 1008.6
20260509210419 28 58 4.8 9.7 0.00 0.03 0.00 38 1008.7
20260509205359 28 53 3.2 11.3 0.00 0.03 0.00 37 1008.9
20260509204359 28 63 4.8 11.3 0.00 0.03 0.00 31 1008.9
20260509203359 28 131 3.2 4.8 0.00 0.03 0.00 34 1009.0
20260509202359 28 59 6.4 12.9 0.00 0.03 0.00 34 1009.0
20260509201359 28 84 0.0 12.9 0.00 0.03 0.00 35 1009.1
20260509200419 28 25 4.8 8.0 0.00 0.03 0.00 34 1009.2
20260509195359 28 108 0.0 6.4 0.00 0.03 0.00 33 1009.2
20260509194358 28 227 3.2 6.4 0.00 0.03 0.00 31 1009.4
20260509193358 28 122 0.0 4.8 0.00 0.03 0.00 32 1009.5
20260509192418 27 82 1.6 8.0 0.00 0.03 0.00 34 1009.5
20260509191358 28 78 1.6 6.4 0.00 0.03 0.00 35 1009.5
20260509190358 27 101 4.8 4.8 0.00 0.03 0.00 35 1009.4
20260509185358 27 78 3.2 6.4 0.00 0.03 0.00 40 1009.4
20260509184358 27 134 0.0 6.4 0.00 0.03 0.00 45 1009.6
20260509183417 27 191 0.0 6.4 0.00 0.03 0.00 45 1009.6
20260509182437 27 190 0.0 6.4 0.00 0.03 0.00 42 1009.9
20260509181417 27 145 1.6 4.8 0.00 0.03 0.00 45 1009.9
20260509180417 27 52 4.8 4.8 0.00 0.03 0.00 47 1010.0
20260509175357 27 223 0.0 4.8 0.00 0.03 0.00 47 1010.2
20260509174357 27 59 1.6 4.8 0.00 0.03 0.00 46 1010.3
20260509173357 27 100 0.0 4.8 0.00 0.03 0.00 54 1010.4
20260509172357 26 159 6.4 6.4 0.00 0.03 0.00 59 1010.5
20260509171356 26 150 4.8 4.8 0.00 0.03 0.00 55 1010.5
20260509170356 26 154 1.6 4.8 0.00 0.03 0.00 53 1010.6
20260509165356 26 121 0.0 6.4 0.00 0.03 0.00 62 1010.4
20260509164356 26 146 1.6 6.4 0.00 0.03 0.00 59 1010.8
20260509163356 25 96 0.0 1.6 0.00 0.03 0.00 60 1010.8
20260509162356 25 161 0.0 4.8 0.00 0.03 0.00 64 1010.7
20260509161416 25 158 0.0 4.8 0.00 0.03 0.00 68 1010.6
20260509160356 24 71 0.0 4.8 0.00 0.03 0.00 68 1010.7
20260509155355 23 232 0.0 4.8 0.00 0.03 0.00 71 1010.6
20260509154355 23 172 0.0 3.2 0.00 0.03 0.00 74 1010.4
20260509153355 23 172 0.0 1.6 0.00 0.03 0.00 73 1010.4
20260509152355 22 74 1.6 3.2 0.00 0.03 0.00 72 1010.6
20260509151415 22 153 1.6 3.2 0.00 0.03 0.00 75 1010.6
20260509150415 22 159 0.0 3.2 0.00 0.03 0.00 76 1010.6
20260509145355 22 172 0.0 4.8 0.00 0.03 0.00 79 1010.6
20260509144354 21 167 0.0 4.8 0.00 0.03 0.00 79 1010.7
20260509143414 21 154 0.0 4.8 0.00 0.03 0.00 79 1010.7
20260509142354 20 150 0.0 3.2 0.00 0.03 0.00 83 1010.5
20260509141354 20 244 0.0 1.6 0.00 0.03 0.00 86 1010.7
20260509140354 18 132 0.0 1.6 0.00 0.03 0.00 91 1010.5
20260509135354 18 178 0.0 0.0 0.00 0.03 0.00 93 1010.5
20260509134354 17 178 0.0 0.0 0.00 0.03 0.00 93 1010.4
20260509133353 17 178 0.0 0.0 0.00 0.03 0.00 95 1010.0
20260509132413 17 178 0.0 0.0 0.00 0.03 0.00 96 1009.8
20260509131354 17 178 0.0 0.0 0.00 0.03 0.00 97 1009.9
20260509130353 16 178 0.0 0.0 0.00 0.03 0.00 97 1009.9
20260509125353 16 178 0.0 0.0 0.00 0.03 0.00 97 1009.9
20260509124353 15 178 0.0 0.0 0.00 0.03 0.00 97 1009.6
20260509123433 15 178 0.0 0.0 0.00 0.03 0.00 97 1009.6
20260509122353 13 178 0.0 0.0 0.00 0.03 0.00 96 1009.6
20260509121352 13 178 0.0 0.0 0.00 0.03 0.00 96 1009.4
20260509120352 13 178 0.0 0.0 0.00 0.03 0.00 96 1009.3